軌道要素
Epoch 2021 Mar. 7.0 TT = JDT 2459280.5
T 2021 Mar. 12.22519 TT Rudenko
q 1.3206987 (2000.0) P Q
z -0.0004261 Peri. 186.77045 -0.27298035 -0.82905129
+/-0.0000021 Node 279.98197 +0.90424388 -0.04797152
e 1.0005628 Incl. 29.70358 +0.32836678 -0.55711102
From 807 observations 2020 July 1-2021 Apr. 7, mean residual 0".8.
|